When you browse on this site, cookies collect data to enhance your experience and personalize the content and advertising you see.
Visit our Privacy Policy to learn more. By continuing to use the site, you agree to this use of cookies and data.
  • In Sweden
  • List of Countries
  • For 7 days
  • Water Temperature
  • Satellite Maps
  • Weather Map
  • Weather Widgets
  • user-avatar
    Login

    Hourly Weather Omel'nyche

    Today, 22 April, Monday

    Time Temperature Precipitation Wind Pressure Humidity
    00:00 +10°C° 0 mm 2 mps 761 mmHg 46%
    01:00 +10°C° 0 mm 2 mps 761 mmHg 46%
    02:00 +9°C° 0 mm 2 mps 762 mmHg 46%
    03:00 +9°C° 0 mm 2 mps 762 mmHg 47%
    04:00 +9°C° 0 mm 2 mps 762 mmHg 49%
    05:00 +8°C° 0 mm 2 mps 762 mmHg 50%
    06:00 +10°C° 0 mm 3 mps 762 mmHg 48%
    07:00 +11°C° 0 mm 3 mps 762 mmHg 47%
    08:00 +12°C° 0 mm 3 mps 763 mmHg 46%
    09:00 +13°C° 0 mm 3 mps 763 mmHg 40%
    10:00 +15°C° 0 mm 4 mps 763 mmHg 35%
    11:00 +17°C° 0 mm 4 mps 763 mmHg 30%
    12:00 +17°C° 0 mm 4 mps 763 mmHg 30%
    13:00 +17°C° 0 mm 4 mps 763 mmHg 30%
    14:00 +17°C° 0 mm 4 mps 762 mmHg 30%
    15:00 +17°C° 0 mm 3 mps 762 mmHg 32%
    16:00 +17°C° 0 mm 3 mps 762 mmHg 35%
    17:00 +17°C° 0 mm 3 mps 763 mmHg 37%
    18:00 +15°C° 0 mm 2 mps 763 mmHg 40%
    19:00 +14°C° 0 mm 2 mps 763 mmHg 42%
    20:00 +12°C° 0 mm 1 mps 763 mmHg 45%
    21:00 +12°C° 0 mm 1 mps 763 mmHg 45%
    22:00 +12°C° 0 mm 1 mps 763 mmHg 45%
    23:00 +12°C° 0 mm 2 mps 764 mmHg 45%

    Tomorrow, 23 April, Tuesday

    Time Temperature Precipitation Wind Pressure Humidity
    00:00 +12°C° 0 mm 2 mps 764 mmHg 46%
    01:00 +12°C° 0 mm 2 mps 764 mmHg 46%
    02:00 +12°C° 0 mm 2 mps 764 mmHg 47%
    03:00 +12°C° 0 mm 2 mps 764 mmHg 48%
    04:00 +10°C° 0 mm 2 mps 764 mmHg 50%
    05:00 +10°C° 0 mm 2 mps 765 mmHg 51%
    06:00 +12°C° 0 mm 2 mps 765 mmHg 50%
    07:00 +13°C° 0 mm 1 mps 765 mmHg 49%
    08:00 +15°C° 0 mm 1 mps 765 mmHg 47%
    09:00 +16°C° 0 mm 1 mps 765 mmHg 43%
    10:00 +17°C° 0 mm 2 mps 765 mmHg 39%
    11:00 +18°C° 0 mm 2 mps 765 mmHg 35%
    12:00 +18°C° 0 mm 2 mps 765 mmHg 35%
    13:00 +18°C° 0 mm 2 mps 765 mmHg 35%
    14:00 +19°C° 0 mm 1 mps 765 mmHg 35%
    15:00 +19°C° 0 mm 1 mps 765 mmHg 37%
    16:00 +19°C° 0 mm 1 mps 764 mmHg 40%
    17:00 +19°C° 0 mm 1 mps 764 mmHg 42%
    18:00 +16°C° 0 mm 1 mps 764 mmHg 45%
    19:00 +15°C° 0 mm 1 mps 765 mmHg 47%
    20:00 +14°C° 0 mm 1 mps 765 mmHg 49%
    21:00 +13°C° 0 mm 0 mps 765 mmHg 49%
    22:00 +13°C° 0 mm 0 mps 765 mmHg 49%
    23:00 +12°C° 0 mm 0 mps 765 mmHg 50%

    Day after tomorrow, 24 April, Wednesday

    Time Temperature Precipitation Wind Pressure Humidity
    00:00 +12°C° 0 mm 0 mps 765 mmHg 51%
    01:00 +11°C° 0 mm 0 mps 765 mmHg 52%
    02:00 +11°C° 0 mm 0 mps 766 mmHg 53%
    03:00 +10°C° 0 mm 0 mps 766 mmHg 55%
    04:00 +10°C° 0 mm 0 mps 766 mmHg 57%
    05:00 +10°C° 0 mm 1 mps 766 mmHg 59%
    06:00 +12°C° 0 mm 1 mps 766 mmHg 54%
    07:00 +14°C° 0 mm 1 mps 766 mmHg 50%
    08:00 +16°C° 0 mm 1 mps 766 mmHg 45%
    09:00 +18°C° 0 mm 1 mps 766 mmHg 41%
    10:00 +19°C° 0 mm 1 mps 766 mmHg 37%
    11:00 +20°C° 0 mm 1 mps 765 mmHg 34%
    12:00 +20°C° 0 mm 1 mps 765 mmHg 34%
    13:00 +20°C° 0 mm 1 mps 765 mmHg 34%
    14:00 +21°C° 0 mm 1 mps 765 mmHg 34%
    15:00 +20°C° 0 mm 1 mps 765 mmHg 35%
    16:00 +20°C° 0 mm 1 mps 764 mmHg 36%
    17:00 +20°C° 0 mm 1 mps 764 mmHg 37%
    18:00 +19°C° 0 mm 1 mps 764 mmHg 41%
    19:00 +16°C° 0 mm 1 mps 764 mmHg 46%
    20:00 +15°C° 0 mm 1 mps 764 mmHg 50%
    21:00 +14°C° 0 mm 1 mps 764 mmHg 51%
    22:00 +14°C° 0 mm 1 mps 765 mmHg 52%
    23:00 +13°C° 0 mm 1 mps 765 mmHg 54%

    25 April, Thursday

    Time Temperature Precipitation Wind Pressure Humidity
    00:00 +13°C° 0 mm 1 mps 765 mmHg 55%
    01:00 +13°C° 0 mm 1 mps 765 mmHg 57%
    02:00 +12°C° 0 mm 1 mps 765 mmHg 58%
    03:00 +12°C° 0 mm 1 mps 765 mmHg 60%
    04:00 +12°C° 0 mm 1 mps 765 mmHg 62%
    05:00 +11°C° 0 mm 1 mps 765 mmHg 64%
    06:00 +13°C° 0 mm 1 mps 765 mmHg 59%
    07:00 +15°C° 0 mm 1 mps 765 mmHg 55%
    08:00 +18°C° 0 mm 1 mps 765 mmHg 50%
    09:00 +19°C° 0 mm 1 mps 765 mmHg 47%
    10:00 +21°C° 0 mm 1 mps 765 mmHg 43%
    11:00 +22°C° 0 mm 1 mps 765 mmHg 39%
    12:00 +23°C° 0 mm 1 mps 765 mmHg 38%
    13:00 +23°C° 0 mm 1 mps 764 mmHg 38%
    14:00 +23°C° 0 mm 1 mps 764 mmHg 38%
    15:00 +23°C° 0 mm 1 mps 764 mmHg 40%
    16:00 +22°C° 0 mm 1 mps 764 mmHg 43%
    17:00 +22°C° 0 mm 1 mps 763 mmHg 45%
    18:00 +19°C° 0 mm 0 mps 763 mmHg 48%
    19:00 +17°C° 0 mm 0 mps 763 mmHg 52%
    20:00 +16°C° 0 mm 0 mps 763 mmHg 55%
    21:00 +15°C° 0 mm 0 mps 763 mmHg 56%
    22:00 +15°C° 0 mm 0 mps 763 mmHg 58%
    23:00 +14°C° 0 mm 0 mps 763 mmHg 60%

    26 April, Friday

    Time Temperature Precipitation Wind Pressure Humidity
    00:00 +14°C° 0 mm 0 mps 763 mmHg 61%
    01:00 +14°C° 0 mm 0 mps 763 mmHg 63%
    02:00 +13°C° 0 mm 0 mps 763 mmHg 64%
    03:00 +13°C° 0 mm 0 mps 763 mmHg 65%
    04:00 +14°C° 0 mm 1 mps 763 mmHg 65%
    05:00 +14°C° 0 mm 1 mps 763 mmHg 66%
    06:00 +16°C° 0 mm 1 mps 763 mmHg 63%
    07:00 +18°C° 0 mm 1 mps 763 mmHg 59%
    08:00 +20°C° 0 mm 1 mps 763 mmHg 56%
    09:00 +21°C° 0 mm 1 mps 762 mmHg 50%
    10:00 +21°C° 0 mm 2 mps 762 mmHg 45%
    11:00 +24°C° 0 mm 2 mps 762 mmHg 40%
    12:00 +24°C° 0 mm 2 mps 762 mmHg 40%
    13:00 +24°C° 0 mm 2 mps 761 mmHg 40%
    14:00 +24°C° 0 mm 2 mps 761 mmHg 40%
    15:00 +24°C° 0 mm 2 mps 761 mmHg 43%
    16:00 +23°C° 0 mm 1 mps 760 mmHg 46%
    17:00 +23°C° 0 mm 1 mps 760 mmHg 49%
    18:00 +22°C° 0 mm 1 mps 760 mmHg 50%
    19:00 +19°C° 0 mm 0 mps 760 mmHg 52%
    20:00 +18°C° 0 mm 0 mps 760 mmHg 54%
    21:00 +17°C° 0 mm 0 mps 760 mmHg 56%
    22:00 +19°C° 0 mm 1 mps 760 mmHg 57%
    23:00 +18°C° 0 mm 1 mps 760 mmHg 58%

    27 April, Saturday

    Time Temperature Precipitation Wind Pressure Humidity
    00:00 +18°C° 0 mm 1 mps 760 mmHg 59%
    01:00 +18°C° 0 mm 1 mps 760 mmHg 61%
    02:00 +16°C° 0 mm 1 mps 759 mmHg 62%
    03:00 +16°C° 0 mm 1 mps 759 mmHg 64%
    04:00 +14°C° 0 mm 0 mps 759 mmHg 66%
    05:00 +14°C° 0 mm 0 mps 759 mmHg 67%
    06:00 +15°C° 0 mm 0 mps 759 mmHg 62%
    07:00 +19°C° 0 mm 1 mps 759 mmHg 56%
    08:00 +21°C° 0 mm 1 mps 760 mmHg 50%
    09:00 +22°C° 0 mm 1 mps 759 mmHg 45%
    10:00 +23°C° 0 mm 2 mps 759 mmHg 41%
    11:00 +24°C° 0 mm 2 mps 759 mmHg 36%
    12:00 +24°C° 0 mm 2 mps 759 mmHg 36%
    13:00 +24°C° 0 mm 2 mps 758 mmHg 36%
    14:00 +24°C° 0 mm 2 mps 758 mmHg 37%
    15:00 +23°C° 0 mm 2 mps 758 mmHg 43%
    16:00 +21°C° 0 mm 2 mps 758 mmHg 49%
    17:00 +20°C° 0 mm 2 mps 757 mmHg 55%
    18:00 +19°C° 0 mm 2 mps 757 mmHg 56%
    19:00 +19°C° 0 mm 2 mps 757 mmHg 57%
    20:00 +19°C° 0 mm 1 mps 758 mmHg 58%
    21:00 +19°C° 0 mm 1 mps 758 mmHg 59%
    22:00 +18°C° 0 mm 1 mps 758 mmHg 61%
    23:00 +16°C° 0 mm 1 mps 758 mmHg 62%
    Show more